Regional Weather Roundup
Issued by NWS

Home | Current Version | Previous Version | Text Only | Print | Product List | Glossary Off
Versions: 1 2 3 4 5 6 7 8 9 10 11 12 13 14 15 16 17 18 19 20 21 22 23 24 25 26 27 28 29 30 31 32 33 34 35 36 37 38 39 40 41 42 43 44 45 46 47 48 49 50

000
ASUS45 KABQ 221910
RWRNM
NEW MEXICO REGIONAL WEATHER ROUNDUP
NATIONAL WEATHER SERVICE ALBUQUERQUE NM
100 PM MDT TUE AUG 22 2017

NOTE: "FAIR" MEANS FEW OR NO CLOUDS BELOW 12,000 FEET AGL WITH NO
       SIGNIFICANT WEATHER OR OBSTRUCTIONS TO VISION.

      THIS PRODUCT IS RELEASED AS TWO VERSIONS.  ONE VERSION NEAR
      THE TOP OF THE HOUR CONTAINING PRELIMINARY DATA FROM ALBUQUERQUE
      AND OTHER STATIONS.  A FINAL VERSION WITH ADDITIONAL DATA IS
      ISSUED ABOUT 10 MINUTES AFTER THE HOUR.

NMZ501-503-504-510>518-222000-
NORTHWEST PLATEAU/NORTHCENTRAL MOUNTAINS

CITY           SKY/WX    TMP DP  RH WIND       PRES   REMARKS
FARMINGTON     FAIR      81  50  33 SW5       30.29F
LOS ALAMOS     FAIR      73  49  43 E7        30.43F
SANTA FE       FAIR      78  48  34 S6        30.36F
TAOS           FAIR      73  50  44 NE9       30.44F
ANGEL FIRE     CLOUDY    62  51  66 CALM      30.53S

$$
NMZ402-403-502-505>509-222000-
WESTCENTRAL MOUNTAINS/SOUTHWEST MOUNTAINS

CITY           SKY/WX    TMP DP  RH WIND       PRES   REMARKS
GALLUP         FAIR      81  48  31 W13       30.35F
GRANTS         LGT RAIN  75  47  37 NW3       30.38S
SILVER CITY    PTSUNNY   85  49  28 SE3       30.29S

$$
NMZ407-409-411-412-222000-
SOUTHERN DESERTS

CITY           SKY/WX    TMP DP  RH WIND       PRES   REMARKS
DEMING         FAIR      87  58  37 E5        30.21F
LAS CRUCES     FAIR      85  61  43 CALM      30.23F
HOLLOMAN AFB   FAIR      91  60  34 W8        30.21F
ALAMOGORDO     FAIR      86  59  39 NW6       30.21F
T OR C         FAIR      86  55  34 CALM      30.23F

$$
NMZ519>523-222000-
CENTRAL VALLEYS/CENTRAL HIGHLANDS

CITY           SKY/WX    TMP DP  RH WIND       PRES   REMARKS
ALBUQUERQUE    FAIR      81  52  36 VRB5      30.30F
MORIARTY ARPT  PTSUNNY   81  51  35 SE7       30.37F
CLINES CORNERS PTSUNNY   72  53  51 NE6       30.42F
BELEN          FAIR      81  53  38 SW5       30.29F
SOCORRO        FAIR      84  49  29 S3        30.25F

$$
NMZ524>526-539-540-222000-
SOUTHCENTRAL MOUNTAINS

CITY           SKY/WX    TMP DP  RH WIND       PRES   REMARKS
RUIDOSO        NOT AVBL

$$
NMZ527>531-222000-
NORTHEAST HIGHLANDS/NORTHEAST PLAINS

CITY           SKY/WX    TMP DP  RH WIND       PRES   REMARKS
LAS VEGAS      FAIR      72  55  55 NE15      30.42F
RATON          LGT RAIN  70  56  61 NE7       30.39S
CLAYTON        CLOUDY    66  62  87 NE10      30.34S

$$
NMZ532>537-222000-
EASTCENTRAL PLAINS

CITY           SKY/WX    TMP DP  RH WIND       PRES   REMARKS
SANTA ROSA     MOCLDY    78  62  56 N10G16    30.28S
TUCUMCARI      TSTM      66  63  90 NE25G36   30.25R VSB 1
CANNON AFB     CLOUDY    82  68  61 NE7       30.24S
CLOVIS AIRPORT PTSUNNY   81  67  62 VRB5      30.24S

$$
NMZ028-029-538-222000-
SOUTHEAST PLAINS

CITY           SKY/WX    TMP DP  RH WIND       PRES   REMARKS
ROSWELL        FAIR      89  65  44 N12       30.17F
ARTESIA        FAIR      88  64  45 VRB6G15   30.16F
CARLSBAD       FAIR      87  68  52 NE3       30.14F
HOBBS          PTSUNNY   90  61  37 VRB5      30.17F


$$



USA.gov is the U.S. government's official web portal to all federal, state and local government web resources and services.